User: anonymous   Login
Location: Unspecified
(49.2450°N, 0.0000°E)
Time: 04:15:08
(UTC+00:00)
Language:

Cosmos 2016 Rocket - Orbit

View from above orbital plane
View from above orbital plane
View from above satellite
View from above satellite

Ground track
Ground track

The orbit is defined by the following mean orbital elements,

1 19922U          26088.06211859 +.00000000 +00000-0 +81206-4 0 00003
2 19922  82.9611 207.4055 0035118 261.0494  98.6688 13.77493337    01
Epoch (UTC): 29 March 2026 01:29:27
Eccentricity: 0.0035118
inclination: 82.9611°
perigee height: 947 km
apogee height: 999 km
right ascension of ascending node: 207.4055°
argument of perigee: 261.0494°
revolutions per day: 13.77493337
mean anomaly at epoch: 98.6688°

The dashed part of the orbit path shows where the satellite is in the earth's shadow,  

DLR